Location: Consuma
(43.7833°N, 11.5833°E)
Time: 08:05:49
(UTC+00:00)

Cosmos 1934 Rocket - Pass Details

Date: 17 February 2020
Orbit: 939 x 998 km, 83.0° (Epoch: 30 March)

Event Time Altitude Azimuth Distance (km) Brightness Sun altitude
Rises 03:44:52 0° 349° (NNW) 3,687 7.0 -26.9°
Reaches altitude 10° 03:47:23 10° 346° (NNW) 2,744 6.3 -26.4°
Maximum altitude 03:53:36 65° 267° (W) 1,087 3.9 -25.3°
Drops below altitude 10° 03:59:51 10° 187° (S) 2,754 6.2 -24.2°
Sets 04:02:24 0° 184° (S) 3,702 6.9 -23.8°
